Hourly Data Report for October 17, 2013

All times are specified in Local Standard Time (LST). Add 1 hour to adjust for Daylight Saving Time where and when it is observed.

TORONTO INTL A
ONTARIO

43°40'36.000" N
79°37'50.000" W
173.40 m
6158731
71624
YYZ

Download Data

Hourly Data (October 2013)
Hourly Data Report for October 17, 2013
Temp Definition
°C
Dew Point Temp Definition
°C
Rel Hum Definition
%
Wind Dir Definition
10's deg

Wind Spd Definition
km/h
Visibility Definition
km
Stn Press Definition
kPa
Hmdx Definition


Wind Chill Definition


Weather Definition


TIME
00:00 Legend Double Dagger 11.0 8.1 82 23 14 24.1 98.93     LegendNANA
01:00 Legend Double Dagger 11.2 8.1 81 20 18 24.1 98.96     Mostly Cloudy
02:00 Legend Double Dagger 11.2 8.3 82 22 18 24.1 98.97     LegendNANA
03:00 Legend Double Dagger 10.2 8.0 86 19 8 24.1 98.98     LegendNANA
04:00 Legend Double Dagger 11.2 8.8 85 21 13 24.1 98.98     Mostly Cloudy
05:00 Legend Double Dagger 11.1 9.0 87 25 8 24.1 99.01     LegendNANA
06:00 Legend Double Dagger 11.4 8.8 84 25 11 24.1 99.02     LegendNANA
07:00 Legend Double Dagger 11.0 8.6 85 25 9 24.1 99.05     Mostly Cloudy
08:00 Legend Double Dagger 11.9 8.8 81 24 7 24.1 99.06     LegendNANA
09:00 Legend Double Dagger 12.5 8.6 77 28 4 24.1 99.08     LegendNANA
10:00 Legend Double Dagger 13.6 9.3 75 24 9 24.1 99.05     Mostly Cloudy
11:00 Legend Double Dagger 14.2 9.1 71 26 8 24.1 99.02     LegendNANA
12:00 Legend Double Dagger 14.8 8.6 66 23 11 24.1 98.94     LegendNANA
13:00 Legend Double Dagger 15.3 8.1 62 21 10 24.1 98.82     Mostly Cloudy
14:00 Legend Double Dagger 14.9 10.0 72 14 10 24.1 98.74     LegendNANA
15:00 Legend Double Dagger 14.9 9.7 71 15 13 24.1 98.67     LegendNANA
16:00 Legend Double Dagger 14.0 9.7 75 13 10 24.1 98.59     Cloudy
17:00 Legend Double Dagger 12.9 10.8 87 15 9 9.7 98.53     Rain Showers,Fog
18:00 Legend Double Dagger 12.2 10.6 90 21 19 8.1 98.61     Rain Showers,Fog
19:00 Legend Double Dagger 11.9 10.8 93 23 14 9.7 98.60     Rain Showers,Fog
20:00 Legend Double Dagger 11.3 9.6 89 25 11 16.1 98.56     LegendNANA
21:00 Legend Double Dagger 11.3 9.6 89 24 17 12.9 98.56     Rain
22:00 Legend Double Dagger 11.0 9.6 91 25 16 16.1 98.53     Rain
23:00 Legend Double Dagger 10.7 9.0 89 25 18 16.1 98.53     LegendNANA

Notes on Data Quality.

Legend

  • E = Estimated
  • M = Missing
  • NA = Not Available
  • ‡ = Partner data that is not subject to review by the National Climate Archives
Date modified: